Home > Weather > Uroševac > Past weeks

Flag for Kosovo Past Weather in Uroševac, Kosovo — Yesterday and Last 2 Weeks

Now
79 °F

Sunny.


Feels Like: 79 °F
Forecast: 49 / 77 °F
Wind: 2 mph from East

Location: Skopje-Petrovec

Current Time: May 31, 2016 at 8:08:58 PM

Latest Report: May 31, 2016 at 7:30 PM


Visibility: 10 mi

Pressure: 29.92 "Hg (28.00 "Hg at 582m altitude)

Humidity: 39%

Dew Point: 52 °F

Location of UroševacLocation

Past Weather in Uroševac — Graph

°F

Uroševac Temperature Yesterday

Maximum temperature yesterday: 88 °F (at 4:30 PM)
Minimum temperature yesterday: 59 °F (at 5:30 AM)
Average temperature yesterday: 73 °F

High & Low Weather Summary for the Past Weeks

 TemperatureHumidityPressure
High88 °F (May 30, 4:30 PM)94% (May 20, 7:00 PM)30.09 "Hg (May 20, 7:00 PM)
Low41 °F (May 18, 5:00 AM)18% (May 24, 1:30 PM)29.71 "Hg (May 24, 4:30 PM)
Average64 °F64%29.95 "Hg
* Reported May 16 6:00 PM — May 31 6:30 PM, Uroševac, Weather by CustomWeather, © 2016

Note: Actual official high and low records may vary slightly from our data, if they occured in-between our weather recording intervals... More about our weather records

Advertising

Uroševac Weather History for the Previous 24 Hours

Scroll right to see more
 ConditionsComfort  
Time TempWeatherWind HumidityBarometerVisibility
6:30 PM
Tue, May 31
82 °FSunny.5 mph28%29.89 "Hg10 mi
6:00 PM84 °FSunny.5 mph27%29.89 "Hg10 mi
5:30 PM84 °FSunny.7 mph27%29.89 "Hg10 mi
5:00 PM84 °FSunny.7 mph27%29.89 "Hg10 mi
4:30 PM84 °FSunny.6 mph25%29.89 "Hg10 mi
4:00 PM84 °FPassing clouds.7 mph25%29.89 "HgN/A
3:30 PM86 °FPassing clouds.5 mph24%29.92 "HgN/A
3:00 PM86 °FPassing clouds.5 mph22%29.92 "HgN/A
2:30 PM84 °FSunny.2 mph25%29.92 "Hg10 mi
2:00 PM84 °FPassing clouds.5 mph23%29.92 "HgN/A
1:30 PM82 °FSunny.2 mph25%29.92 "Hg10 mi
1:00 PM82 °FSunny.3 mph23%29.95 "Hg10 mi
12:30 PM81 °FSunny.3 mph24%29.95 "Hg10 mi
12:00 PM81 °FSunny.2 mph24%29.95 "Hg10 mi
11:30 AM81 °FSunny.3 mph26%29.95 "Hg10 mi
11:00 AM77 °FSunny.2 mph30%29.95 "Hg10 mi
10:30 AM75 °FSunny.1 mph34%29.95 "Hg10 mi
10:00 AM73 °FSunny.2 mph36%29.95 "Hg10 mi
9:30 AM72 °FSunny.No wind38%29.98 "Hg10 mi
9:00 AM70 °FSunny.No wind43%29.98 "Hg10 mi
8:30 AM66 °FSunny.No wind52%29.98 "Hg10 mi
8:00 AM64 °FSunny.No wind60%29.98 "Hg10 mi
7:30 AM63 °FSunny.No wind64%29.98 "Hg10 mi
7:00 AM57 °FSunny.2 mph77%29.95 "Hg10 mi
6:30 AM54 °FSunny.1 mph88%29.95 "Hg10 mi
6:00 AM52 °FSunny.No wind94%29.95 "Hg10 mi
5:00 AM52 °FClear.No wind82%29.92 "Hg10 mi
4:00 AM54 °FClear.No wind88%29.89 "Hg10 mi
3:30 AM54 °FClear.No wind88%29.89 "Hg10 mi
3:00 AM54 °FClear.No wind88%29.89 "Hg10 mi
2:30 AM55 °FClear.No wind82%29.89 "Hg10 mi
2:00 AM57 °FClear.2 mph82%29.89 "Hg10 mi
1:00 AM61 °FClear.2 mph77%29.89 "Hg10 mi
12:30 AM61 °FClear.2 mph72%29.89 "Hg10 mi
12:00 AM63 °FClear.5 mph68%29.89 "Hg10 mi
11:30 PM
Mon, May 30
64 °FClear.1 mph64%29.89 "Hg10 mi
11:00 PM70 °FClear.6 mph46%29.89 "Hg10 mi
10:30 PM70 °FClear.2 mph53%29.86 "Hg10 mi
10:00 PM68 °FClear.9 mph60%29.86 "Hg10 mi
9:30 PM70 °FClear.7 mph64%29.86 "Hg10 mi
9:00 PM72 °FSunny.No wind61%29.83 "Hg10 mi
8:30 PM73 °FSunny.3 mph57%29.83 "Hg10 mi
8:00 PM77 °FSunny.5 mph51%29.83 "Hg10 mi
Weather by CustomWeather, © 2016

See weather overviewHow to use our weather pages